If you wish to contribute or participate in the discussions about articles you are invited to join SKYbrary as a registered user

 Actions

Alferez Fap David Figueroa Fernandini Airport

From SKYbrary Wiki

SPNC /
Revision as of 08:52, 1 September 2017 by Editor1 (talk | contribs)
Airport
ICAO: SPNC – IATA: HUU
Summary
Name Alferez Fap David Figueroa Fernandini Airport
Region South America and Caribbean
Territory Peru PE.gif
Location Amarilis, Huánuco
Serving Huánuco
Elevation 1,850.136 m
6,070 ft
6,070 ft1,850.136 m
Type medium airport
Coordinates 9° 52' 43.72" S, 76° 12' 17.27" W
Runways
Designator Length Width Surface ROPS
7/25 2500 m8,202.1 ft
30 m98.425 ft
ASP /


METAR
Observation SPNC 011800Z 07015KT 9999 FEW040 26/12 Q1020 RMK PP000
Station Huanuco
Date/Time 01 July 2020 18:00:00
Wind direction 70°
Wind speed 15 kts
Lowest cloud amount few clouds
Temperature 26°C
Dew point 12°C
Humidity 41%
QNH 1020 hPa
Weather condition n/a

Airport serving Huánuco, Peru. It is the most important airport in the Huánuco Region and is operated by the civil government.

Climatology

Warm Semi-arid climate (Köppen climate classification BSh).

Maps

Terrain

Loading map...

Airport Layout

Loading map...


Accidents & Serious Incidents at or in vicinity of SPNC

None on SKYbrary